GEFSSE_500_meanwind_156.txt.gz
Wind_Speed
5 5 5 5 6 6 7 7 7 8 8 9 9 10 10 11 12 12 13 14 14 15 15 16 17 18 19 19 20 20 21 22 22 23 24 24 24 24 25 25 25 26 26
5 5 5 5 6 6 6 7 7 8 9 9 10 11 11 12 13 13 14 15 15 16 16 17 17 18 18 19 20 20 21 22 23 24 25 25 26 26 26 26 27 27 27
4 4 5 5 6 6 7 7 8 9 10 10 11 12 13 13 14 14 15 15 16 17 17 18 18 19 19 20 21 21 22 23 24 25 26 26 27 27 27 28 28 28 29
4 4 5 5 5 6 7 8 8 9 10 11 12 13 13 14 15 15 16 16 17 17 18 18 19 20 20 21 22 22 23 24 25 26 26 27 28 28 29 29 29 29 30
4 4 5 5 6 7 8 8 9 10 11 12 13 14 14 15 15 16 17 18 18 19 19 20 20 21 21 22 22 23 24 24 25 25 26 27 27 28 28 29 29 29 30
4 4 5 6 7 8 8 9 10 11 12 13 13 14 15 16 16 17 18 18 18 19 19 20 20 21 22 22 23 23 24 24 25 25 26 26 27 28 28 29 29 30 30
4 5 6 6 7 8 9 10 11 12 13 13 14 14 15 16 16 17 17 18 18 19 19 20 20 21 22 23 23 23 24 25 25 26 27 27 28 28 29 29 30 31 31
5 5 6 7 8 9 10 11 12 13 13 14 14 15 16 16 17 17 18 18 19 19 20 20 21 22 22 23 24 24 24 25 26 26 27 28 28 29 30 30 30 31 31
7 7 8 9 10 10 11 12 13 14 14 15 15 16 17 17 18 18 19 20 20 20 21 22 22 23 23 24 24 25 25 25 26 26 27 28 28 29 29 30 30 31 32
9 9 10 10 11 11 12 13 14 15 15 16 16 17 18 18 19 19 20 21 21 22 22 23 23 24 24 24 25 25 26 26 27 27 27 28 28 29 30 30 31 31 32
10 11 11 12 12 13 13 14 15 16 16 17 17 18 19 19 20 21 21 22 22 23 23 24 24 25 25 25 26 27 27 27 28 28 28 28 29 30 30 31 31 32 32
11 12 13 13 14 15 15 16 17 17 18 18 19 19 20 21 21 22 22 23 24 24 25 25 25 26 26 27 27 28 28 28 29 29 29 30 30 31 31 31 32 32 32
13 13 14 14 15 16 17 18 19 19 19 20 20 21 21 22 22 23 24 24 25 25 26 26 27 27 27 28 28 29 29 29 29 30 30 31 31 31 32 32 32 33 33
14 15 15 15 16 17 18 19 19 20 20 21 21 22 23 23 24 24 25 25 26 26 27 28 28 28 28 29 29 30 30 30 30 30 31 31 32 32 33 33 34 34 34
16 16 16 17 18 18 19 19 20 21 21 22 22 23 24 24 25 25 26 27 27 28 29 29 30 30 30 30 30 31 31 31 31 32 32 32 33 33 33 34 35 35 36
18 18 18 19 19 19 20 20 21 22 22 23 24 24 25 25 26 27 27 28 29 29 30 31 31 31 31 31 31 32 32 32 32 33 33 33 34 34 35 35 36 36 37
19 19 20 20 21 21 21 22 22 22 23 24 25 26 26 27 27 28 28 29 30 30 31 31 32 32 32 32 32 33 33 33 33 33 34 34 34 35 35 36 37 38 38
21 21 21 22 22 22 23 23 23 24 25 26 26 27 27 28 28 29 29 30 30 31 32 32 32 32 32 33 33 33 34 34 34 34 35 35 36 36 37 38 38 39 39
23 23 23 23 23 24 24 24 24 25 26 27 27 28 28 29 29 30 30 31 31 32 32 32 32 33 33 34 34 34 35 35 35 35 36 36 37 38 39 39 40 40 41
24 24 24 25 25 25 25 25 26 26 27 28 28 29 29 29 30 30 31 32 32 32 32 33 33 34 34 35 35 35 36 36 36 37 37 38 39 39 40 40 41 41 42
25 25 25 26 26 26 26 26 27 27 28 29 29 29 30 30 30 31 32 32 32 33 33 34 34 35 35 35 36 36 36 37 38 38 39 40 40 41 41 42 42 43 43
26 26 27 27 27 27 27 27 28 29 29 29 30 30 30 30 30 31 32 33 33 34 34 35 35 36 36 36 37 37 38 38 39 40 40 41 41 42 43 44 44 44 45
28 28 28 28 28 28 28 28 29 29 30 30 30 31 31 31 31 32 33 34 34 34 35 35 36 37 37 38 38 39 40 40 40 40 41 42 43 44 44 45 45 45 46
29 29 28 28 28 28 29 29 30 30 31 31 31 31 31 32 33 33 34 34 35 35 36 36 37 38 39 39 39 40 41 42 42 42 42 43 44 44 44 45 46 46 47
30 30 29 29 29 29 30 30 30 30 31 31 31 32 32 33 33 34 35 35 35 36 37 38 38 39 40 40 41 41 42 42 43 44 43 44 44 45 45 46 47 47 48
31 30 30 30 30 30 30 30 31 31 31 31 32 32 33 33 34 35 35 36 36 37 38 38 39 40 41 41 41 42 43 43 44 45 45 45 45 46 46 48 48 49 49

GEFSSE_500_meanwind_162.txt.gz
Wind_Speed
7 7 7 7 7 7 7 7 8 8 9 9 9 10 10 11 11 12 13 14 15 15 16 17 18 19 19 20 20 21 22 23 23 23 24 24 25 25 26 26 26 27 27
6 7 7 7 7 7 8 8 8 8 9 9 10 10 11 11 12 13 14 15 16 16 17 18 19 19 20 21 22 22 23 24 24 24 25 25 26 27 27 28 28 29 29
6 6 6 7 7 7 8 8 8 9 9 9 10 11 11 12 13 14 15 16 16 17 18 18 19 20 21 21 22 23 23 24 25 25 26 27 28 28 29 29 29 30 30
6 6 6 7 7 7 8 8 8 8 9 10 10 11 12 13 14 15 16 16 17 18 18 19 20 21 21 22 23 24 24 25 25 26 26 27 27 28 28 29 29 29 30
7 7 7 6 7 7 8 8 8 9 9 10 11 11 12 13 14 15 16 16 17 18 19 20 21 21 22 22 23 24 24 25 25 26 26 26 27 27 28 28 29 29 30
7 7 7 7 7 7 8 8 9 9 10 11 11 12 13 14 14 15 16 17 17 18 19 20 20 21 21 22 22 23 24 24 25 25 26 26 27 27 28 28 29 29 30
7 7 7 7 7 8 9 9 9 10 11 12 13 13 14 15 15 15 16 17 18 19 19 20 20 20 21 22 22 23 24 24 25 25 26 26 27 27 28 28 29 30 30
7 7 7 8 8 8 9 10 10 11 12 13 13 14 15 15 16 16 17 18 19 20 20 21 21 21 22 23 23 24 24 25 25 25 26 27 27 28 28 29 29 30 30
7 8 8 8 9 9 10 10 11 12 13 14 14 15 15 16 16 17 18 19 20 20 21 21 22 22 23 24 24 25 25 25 26 26 26 27 27 28 28 29 29 30 30
9 9 9 9 10 10 11 11 12 13 13 14 15 15 16 17 18 19 19 19 20 21 21 22 22 23 24 25 25 26 26 26 27 27 27 28 28 29 29 29 30 30 31
10 10 10 10 10 11 11 12 13 13 14 15 15 16 17 18 18 19 19 20 20 21 22 22 23 24 25 25 26 26 27 27 28 28 28 29 29 29 30 30 30 31 31
12 12 12 11 12 12 13 13 13 13 14 15 16 16 17 17 18 19 20 20 21 22 23 24 24 25 26 26 27 27 28 28 29 29 29 29 30 30 30 31 31 31 32
14 14 14 14 14 14 14 13 14 15 15 16 16 17 17 18 19 20 20 21 22 23 24 25 25 26 26 27 27 28 28 29 29 30 30 30 30 31 31 31 32 32 32
15 16 16 15 15 15 15 15 16 16 17 17 18 18 18 19 20 21 21 22 23 24 24 25 26 27 27 28 28 29 29 29 30 30 30 31 31 31 32 32 32 33 33
17 17 17 17 16 16 17 17 17 18 18 19 19 19 20 21 21 22 23 23 24 24 25 26 26 27 28 28 29 29 29 30 30 30 31 32 32 32 33 33 33 34 34
19 19 19 18 18 18 18 19 19 19 19 20 20 21 21 22 23 23 24 24 25 25 26 26 27 28 28 29 29 30 30 30 31 31 32 32 33 33 34 34 35 35 36
21 21 20 20 20 20 20 20 21 21 21 21 22 22 23 23 24 24 24 25 25 26 26 27 28 28 29 30 30 30 30 31 31 32 32 33 34 34 35 36 36 37 37
22 22 22 22 22 22 22 22 22 22 22 22 23 24 24 25 25 25 25 25 26 27 27 28 28 29 30 30 30 31 31 32 33 33 34 34 35 35 36 37 37 37 38
24 24 24 24 24 23 23 24 24 24 24 24 24 25 25 25 25 26 26 26 27 28 28 28 29 30 30 31 31 32 32 33 34 34 35 35 35 36 37 37 38 38 39
26 26 26 26 26 25 25 25 25 25 25 26 26 26 27 26 26 26 26 27 28 28 29 29 30 30 31 31 32 32 33 34 34 35 36 36 37 37 38 38 39 39 40
28 28 28 27 27 27 26 27 27 27 27 27 27 27 27 27 27 27 27 28 28 29 29 30 31 31 32 33 33 34 34 35 36 36 37 37 38 38 38 39 40 40 41
30 29 29 29 28 28 28 28 28 28 28 28 28 28 28 28 28 28 28 28 29 29 30 31 31 32 33 34 34 35 35 35 36 37 37 38 38 39 39 40 41 42 42
31 31 31 30 29 29 29 30 30 30 29 29 30 29 29 29 29 29 29 29 30 30 30 31 32 33 34 35 35 36 37 36 37 37 38 39 39 40 40 41 42 43 43
33 32 32 32 31 30 31 31 30 30 30 31 30 30 30 30 30 30 30 31 31 31 31 32 33 34 35 35 36 37 38 39 39 38 38 39 40 41 42 43 44 44 45
34 34 33 33 32 32 32 32 31 32 32 32 31 31 31 31 31 31 31 32 32 32 32 33 34 35 36 36 37 38 39 40 40 41 40 41 41 42 43 44 45 46 46
35 35 34 34 34 33 33 33 32 33 33 32 32 32 32 32 31 32 32 32 33 33 34 34 35 36 37 38 38 39 40 41 41 42 43 43 43 43 45 46 46 47 48

GEFSSE_500_meanwind_168.txt.gz
Wind_Speed
6 6 6 5 6 6 5 6 6 6 6 6 7 7 8 9 9 9 10 11 12 13 14 14 15 16 17 18 19 19 20 20 21 22 22 22 23 24 24 25 25 26 26
6 6 6 5 5 5 6 6 6 6 6 6 7 7 8 9 9 10 11 11 12 13 14 15 16 17 17 18 19 20 20 21 22 23 23 24 24 25 26 26 26 27 27
6 5 5 5 5 5 5 6 6 6 7 7 7 8 8 9 9 10 11 12 13 13 14 15 16 17 18 19 20 20 21 22 23 23 24 24 25 25 25 26 26 27 27
6 5 5 5 5 5 5 5 6 7 7 7 8 8 9 9 10 11 12 12 13 14 15 15 16 17 18 18 19 20 21 21 22 23 23 24 24 25 25 25 26 26 27
6 5 5 5 5 5 5 6 6 7 7 8 8 9 9 10 10 11 12 12 13 15 16 16 17 17 18 18 19 19 20 21 21 22 23 23 24 24 25 26 26 27 27
6 6 5 5 5 6 6 6 7 7 8 8 9 9 10 10 11 12 12 13 14 15 16 17 17 18 18 19 19 20 21 21 22 23 23 24 24 25 25 26 26 27 27
7 6 6 6 6 6 7 7 8 8 9 9 9 10 10 11 12 13 14 14 15 16 17 17 18 18 18 19 20 20 21 21 22 23 23 24 25 25 26 26 27 27 27
8 7 7 7 7 7 8 8 8 9 9 9 10 10 11 12 13 14 15 15 16 16 17 17 18 18 19 19 20 20 21 22 22 23 24 24 25 26 26 27 27 28 28
9 8 8 8 8 8 8 9 9 9 9 9 10 11 12 13 14 14 15 15 16 16 17 18 18 18 19 19 20 21 22 22 23 23 24 25 25 26 26 27 28 28 29
10 10 9 9 9 9 9 9 10 10 10 10 11 12 13 13 14 15 15 15 16 17 18 18 18 19 19 19 20 21 22 23 23 24 25 25 26 26 27 27 28 28 29
11 11 10 10 10 10 10 10 10 11 11 11 12 12 13 13 14 15 16 16 17 18 18 18 19 19 20 20 20 21 22 23 23 24 25 25 26 27 27 28 28 29 30
13 13 12 12 12 11 11 11 11 11 12 12 13 13 13 14 15 15 16 17 18 18 19 19 19 20 20 21 21 22 22 23 24 25 25 26 27 27 28 28 29 30 30
14 14 14 13 13 13 12 12 12 12 13 13 14 14 15 15 16 16 17 18 18 19 19 20 20 20 21 21 22 23 23 24 24 25 26 26 27 28 28 29 29 30 31
16 16 15 15 14 14 14 14 14 14 14 14 15 15 16 17 17 17 18 18 19 19 20 21 21 21 22 22 23 23 24 24 25 26 26 27 27 28 29 29 30 30 31
17 17 16 16 16 15 15 15 15 15 16 16 16 17 17 18 18 18 19 19 20 20 21 21 22 22 22 23 23 24 24 25 25 26 27 28 28 29 29 30 30 31 32
18 18 18 18 17 17 17 17 17 17 17 17 18 18 18 19 19 19 20 20 21 21 22 22 22 22 23 24 24 25 25 25 26 27 27 28 29 29 30 31 31 32 32
20 20 20 20 19 19 19 18 19 19 19 19 19 20 20 20 21 21 22 22 22 23 23 23 23 24 24 24 25 25 25 26 27 27 28 29 29 30 31 31 32 32 33
22 22 22 22 21 21 21 20 20 20 21 21 21 22 22 22 22 23 23 23 23 24 24 24 24 25 25 25 26 26 26 27 28 28 29 30 30 31 31 32 33 33 34
24 24 23 23 23 23 22 22 22 22 22 23 23 24 24 24 24 24 25 25 25 25 25 26 26 26 26 26 27 27 27 27 28 29 30 30 31 32 32 33 34 34 35
26 26 25 25 25 25 25 24 24 24 24 24 24 25 25 25 25 26 26 26 26 26 27 27 27 27 27 28 28 28 28 28 29 30 31 32 32 33 34 34 35 36 36
29 28 28 27 27 27 27 27 26 26 25 25 25 26 26 26 26 27 27 27 27 27 28 28 28 28 29 29 29 29 29 30 30 31 32 33 34 35 35 36 37 37 38
31 30 30 29 29 29 29 28 28 27 27 27 27 27 27 27 28 28 28 28 28 29 29 29 30 30 30 30 30 30 30 30 32 32 33 34 35 36 37 37 38 39 40
33 32 32 32 31 30 30 30 29 29 29 28 28 28 28 29 29 29 29 29 29 30 30 30 30 31 31 31 32 32 32 32 33 33 34 35 36 37 38 38 39 40 41
36 35 34 33 33 32 31 31 30 30 30 30 30 30 30 30 30 30 30 30 30 31 31 31 32 32 32 32 33 33 34 34 34 34 35 36 37 38 39 40 41 42 43
37 37 36 35 35 34 33 32 32 32 31 31 31 31 31 31 32 32 32 32 32 32 32 33 33 33 34 34 34 35 35 36 36 37 37 37 39 39 40 41 42 43 44
38 37 37 37 36 36 35 34 34 33 33 33 32 32 32 33 33 33 33 33 33 33 33 34 34 35 35 35 36 36 37 37 38 39 39 39 40 40 41 42 43 45 46

GEFSSE_500_meanwind_174.txt.gz
Wind_Speed
8 8 7 6 6 6 6 5 5 5 4 4 4 4 5 5 5 6 7 8 8 9 10 11 12 12 13 14 15 15 16 17 18 19 20 20 21 21 22 23 23 23 23
9 8 8 7 6 6 5 5 4 4 4 4 4 4 4 5 6 6 7 8 9 10 10 11 12 13 13 14 15 16 16 17 18 19 19 20 21 21 22 22 23 24 25
10 9 8 7 6 5 5 5 5 5 4 4 4 4 5 5 6 7 8 9 9 10 11 12 12 13 14 15 16 16 17 17 18 19 19 20 20 21 21 21 22 23 24
10 9 8 8 7 6 6 5 6 5 5 5 5 5 6 6 7 8 9 10 10 11 11 12 13 14 15 16 17 17 18 18 19 19 20 20 20 21 21 21 22 23 23
11 10 9 9 8 7 6 6 6 6 6 6 6 6 7 7 8 9 10 10 11 12 12 13 14 15 16 17 17 18 18 19 19 20 20 20 20 21 22 22 22 23 24
12 11 10 9 9 8 7 7 7 7 7 7 7 8 8 8 9 9 10 11 12 13 14 15 15 16 17 18 18 18 18 19 19 20 20 20 21 21 22 22 23 24 24
13 12 11 10 10 9 8 8 8 8 8 8 8 9 9 9 9 10 10 11 12 13 14 15 15 16 17 18 18 18 19 19 20 20 21 21 21 22 22 23 24 24 24
14 13 13 12 11 10 9 9 9 8 8 9 9 9 10 10 10 10 11 12 13 14 14 15 16 17 17 18 18 19 19 20 20 21 21 21 22 22 23 23 24 24 25
15 15 14 13 12 12 11 10 10 9 10 10 10 10 11 11 11 11 12 13 14 14 15 16 17 17 18 18 18 19 19 20 21 21 21 22 22 23 23 24 24 25 25
17 16 15 15 14 13 12 11 11 11 11 11 11 11 11 11 12 12 13 14 14 15 16 17 17 18 18 18 18 19 20 20 21 22 22 23 23 23 24 24 25 25 26
18 18 17 16 15 14 13 12 12 12 12 12 12 12 12 12 13 14 14 15 15 16 16 17 18 18 18 18 19 20 20 21 22 22 23 23 24 24 24 25 26 26 27
20 19 18 18 16 15 15 14 14 13 13 13 13 13 13 14 14 15 15 16 16 17 17 18 18 19 19 19 20 20 21 22 23 23 24 24 24 25 25 26 26 27 27
21 20 20 19 18 17 16 16 16 15 15 15 15 15 15 15 15 16 16 17 17 18 18 19 19 20 20 20 21 22 22 23 24 24 25 25 25 26 26 27 27 28 28
22 22 21 20 19 18 18 18 17 17 16 16 16 16 16 17 17 17 18 18 19 19 20 20 21 21 21 21 22 22 23 24 25 25 26 26 26 26 27 27 28 28 29
24 23 23 22 21 20 20 19 19 18 18 18 17 18 18 18 18 19 19 20 20 20 21 21 22 22 22 23 23 24 25 25 26 26 26 27 27 27 28 28 29 29 30
25 25 24 23 23 22 21 21 20 20 19 19 19 20 20 20 20 20 21 21 21 22 22 22 23 23 24 24 25 26 26 27 27 27 27 28 28 29 29 30 30 30 31
27 26 25 25 24 24 23 22 22 21 21 21 21 22 22 22 22 22 22 22 23 23 23 24 24 25 26 26 27 27 27 28 28 28 29 29 29 30 30 31 31 32 32
29 28 27 26 26 25 25 24 23 23 23 23 23 23 24 23 24 24 24 24 24 24 24 25 26 26 27 28 28 29 29 29 29 29 30 30 30 31 31 32 32 33 33
31 30 29 28 28 27 26 26 25 25 25 25 25 25 25 25 25 25 25 25 25 26 26 27 28 28 29 29 30 30 30 30 30 31 31 31 31 32 32 33 34 34 35
33 32 31 30 30 29 28 28 27 27 27 27 27 27 27 27 27 27 27 27 27 28 28 29 29 30 30 30 31 31 31 31 32 32 32 33 33 33 34 35 36 36 37
35 33 32 32 31 31 30 29 29 29 29 29 29 29 29 29 29 28 28 28 29 29 30 30 30 31 31 32 32 32 32 33 33 33 34 34 35 35 36 37 37 38 39
36 35 34 33 33 32 32 31 31 31 31 30 30 30 30 30 30 30 30 30 31 31 31 32 32 32 33 33 33 33 33 33 34 35 35 36 36 37 38 39 39 40 41
38 37 36 35 35 35 34 34 33 33 32 32 32 32 32 32 32 32 32 32 32 32 33 33 34 34 34 34 34 35 35 34 35 35 36 37 38 39 40 41 41 42 43
41 40 39 38 38 37 37 36 35 34 34 34 34 34 34 33 33 33 34 34 34 34 34 34 35 35 35 35 36 36 37 37 37 37 37 38 39 40 41 42 43 44 45
43 43 41 40 40 40 39 38 37 36 36 36 36 36 36 35 35 35 35 35 35 35 36 36 36 36 36 37 37 38 38 39 39 39 39 39 40 41 42 43 44 45 46
45 45 44 42 41 41 41 40 40 39 38 38 38 38 37 37 36 36 37 37 37 37 37 37 37 37 38 39 39 39 40 40 41 41 41 41 42 42 43 44 45 46 47

GEFSSE_500_meanwind_180.txt.gz
Wind_Speed
10 9 9 9 8 8 7 6 6 6 7 7 7 6 6 6 6 5 5 5 5 5 6 6 7 8 9 10 11 11 12 13 13 14 15 16 16 17 17 17 18 19 19
11 11 10 9 9 8 7 7 7 7 7 6 6 6 6 6 5 5 5 5 6 6 6 7 8 8 9 10 11 11 12 13 14 14 15 16 16 16 17 17 18 18 18
13 12 11 11 10 9 9 8 7 7 7 7 7 6 6 6 6 6 6 6 6 7 7 8 8 9 10 10 11 12 12 13 14 15 15 15 16 16 16 17 18 18 18
14 13 12 12 11 10 10 9 8 8 7 7 7 7 7 7 6 7 7 7 7 8 8 8 9 10 10 11 11 12 13 14 14 15 15 15 16 16 17 17 17 18 18
15 14 13 13 12 11 11 11 10 9 9 9 8 8 8 7 7 7 7 7 8 8 8 9 10 10 10 11 12 13 13 14 15 15 15 16 16 16 17 17 18 18 19
16 15 15 14 13 12 12 12 11 11 10 10 9 9 9 8 8 8 8 8 8 8 9 9 10 11 11 12 12 13 14 14 14 15 16 16 17 17 18 18 18 19 20
17 17 16 16 15 14 14 13 13 12 11 11 11 10 10 9 9 9 9 9 9 9 9 10 11 11 12 12 13 13 14 14 15 15 16 17 17 18 18 18 19 20 20
19 18 18 18 17 16 15 15 14 13 13 12 12 12 11 11 11 10 10 10 10 10 10 11 12 12 12 13 13 14 14 15 15 16 16 17 18 18 18 19 19 20 20
20 20 19 19 18 17 17 16 16 15 14 14 13 13 13 13 12 12 12 11 11 12 12 12 12 13 13 13 14 14 15 15 16 17 17 18 18 18 19 20 20 21 21
21 21 21 20 20 19 18 18 17 16 16 15 15 14 14 14 14 14 13 13 13 13 13 14 14 14 14 14 15 15 16 16 17 17 18 19 19 20 20 21 21 22 22
23 22 22 22 21 20 20 19 18 18 18 17 17 16 16 15 15 15 15 15 15 15 15 15 15 16 16 16 16 17 17 17 18 18 19 20 21 21 22 22 22 22 23
24 24 23 23 22 22 21 20 20 20 19 19 18 17 17 17 17 17 17 17 17 16 16 17 16 17 17 17 17 18 18 19 19 20 20 21 22 22 23 23 23 23 23
26 25 25 24 24 23 23 22 21 21 21 20 19 19 18 18 18 18 18 19 18 18 18 18 18 18 18 18 19 19 20 20 21 21 22 23 23 23 24 24 24 24 24
28 27 27 26 26 25 24 24 23 23 22 22 21 21 20 20 20 20 20 20 20 20 20 20 19 19 20 20 20 21 21 22 22 23 23 24 24 25 25 25 25 25 25
30 29 28 28 27 27 26 25 25 24 24 24 23 23 22 22 22 22 22 22 22 22 22 21 21 21 21 21 22 23 23 24 24 25 25 26 26 26 26 27 27 27 27
31 31 30 30 29 28 28 27 27 26 25 25 25 25 25 24 24 24 24 24 24 24 23 23 23 23 23 23 24 24 25 26 26 26 27 27 27 28 28 28 28 28 28
34 33 32 31 31 30 29 29 28 28 27 26 27 27 26 26 26 26 26 25 25 25 25 25 25 25 24 25 25 26 26 27 27 28 28 29 29 29 30 30 30 30 30
36 35 34 33 32 32 31 31 30 29 29 28 28 28 28 28 28 28 27 27 27 27 27 27 26 26 26 27 27 27 28 28 28 29 30 30 30 30 31 31 31 32 32
37 37 36 35 34 34 33 32 31 31 31 31 30 30 30 30 30 29 29 29 29 29 28 28 28 28 28 28 28 28 29 29 30 30 31 31 32 32 32 33 33 33 34
39 39 38 37 36 36 35 34 33 33 33 33 32 32 32 32 31 31 30 30 30 30 30 30 29 29 29 30 30 30 30 31 31 32 32 33 33 34 34 34 34 35 36
42 41 40 39 39 38 37 36 35 35 35 35 34 34 34 33 33 32 32 32 32 32 31 31 31 31 31 31 31 32 32 32 32 33 34 34 35 35 35 36 36 37 38
43 43 42 42 41 40 39 38 37 37 37 36 35 35 35 35 34 33 33 33 33 33 33 33 33 33 32 33 33 33 33 33 34 34 35 35 36 36 37 37 38 39 40
45 45 44 43 43 42 42 41 40 39 38 37 37 37 37 37 36 36 35 35 34 34 34 34 34 34 34 34 34 35 34 34 35 35 36 36 37 37 38 39 40 41 42
46 46 46 45 44 44 43 43 42 41 40 39 39 39 39 39 38 38 37 37 36 36 35 35 35 36 36 36 36 36 36 36 36 36 37 37 38 39 39 40 41 42 43
46 47 47 46 46 45 45 44 43 42 42 42 42 41 41 40 40 40 39 39 38 38 38 38 37 38 38 38 37 37 37 38 38 38 38 38 39 40 41 41 42 43 44
46 47 47 47 47 47 46 46 45 44 44 44 44 43 43 42 42 42 41 41 40 40 40 40 39 39 39 39 39 39 39 39 39 39 39 39 40 41 41 42 43 44 44

GEFSSE_500_meanwind_186.txt.gz
Wind_Speed
13 13 12 12 12 11 11 10 10 10 9 9 8 8 8 7 7 7 7 6 6 6 6 6 6 7 8 8 8 9 9 9 10 10 11 11 12 12 13 14 14 15 15
14 14 14 13 13 12 11 11 11 10 10 10 9 9 8 8 8 8 7 7 7 7 6 7 7 8 8 8 9 9 9 9 10 10 11 11 12 13 13 14 14 15 15
15 15 15 14 14 14 13 12 12 12 11 11 10 10 10 9 9 8 8 8 7 7 7 8 8 9 9 9 9 9 10 10 11 11 11 12 12 13 13 14 14 15 15
17 16 16 15 15 15 14 14 13 13 12 12 11 11 11 10 9 9 9 8 8 8 8 9 9 10 10 10 10 10 11 11 12 12 12 13 13 13 14 14 15 16 16
18 17 17 16 16 16 16 15 15 14 14 13 12 12 12 11 11 10 10 9 9 9 10 10 10 10 11 11 11 11 12 12 12 13 13 14 14 14 15 15 16 16 17
19 18 18 17 17 17 17 17 16 15 15 14 14 13 13 12 12 11 11 11 10 10 11 11 11 11 11 12 12 12 12 13 13 14 14 14 15 15 16 16 17 17 18
20 20 19 19 18 18 18 18 18 17 16 16 15 15 14 14 13 13 13 12 12 12 12 12 12 12 12 13 13 13 13 13 14 14 14 15 16 16 17 17 18 18 18
22 21 21 21 20 20 20 20 20 19 18 17 17 16 16 15 15 14 14 14 14 14 13 13 13 14 14 14 14 14 14 14 15 15 16 16 17 17 17 18 18 19 19
24 23 22 22 22 21 22 22 21 21 20 19 18 18 17 17 16 16 16 16 16 16 15 15 15 15 15 15 15 15 15 15 15 16 17 17 17 18 18 19 19 20 20
26 25 24 24 23 23 23 23 23 22 21 21 20 19 19 18 18 18 17 17 17 17 17 17 17 17 17 16 16 16 17 16 17 17 17 18 18 18 19 20 20 21 21
28 27 26 26 25 25 25 25 24 23 22 22 21 21 20 20 19 19 19 19 19 19 19 18 18 18 18 18 18 18 18 18 18 18 18 19 19 19 20 21 21 22 22
29 29 29 28 27 27 27 27 26 25 24 24 23 22 22 22 21 21 21 21 21 21 20 20 20 20 20 19 19 19 19 19 19 19 20 20 21 21 22 22 23 23 23
31 31 31 30 29 29 29 29 28 27 26 26 25 24 24 24 24 23 23 23 23 22 22 22 22 21 21 21 21 21 21 21 21 21 21 22 22 22 23 24 24 24 25
34 33 33 32 32 31 31 31 29 28 27 27 27 26 26 26 25 25 24 24 24 24 23 23 23 23 23 23 23 22 22 22 22 23 23 23 24 24 24 25 25 26 26
36 35 35 34 34 33 33 32 31 30 29 29 28 28 28 27 27 26 26 26 25 25 25 25 25 25 25 25 24 24 24 24 24 24 25 25 25 26 26 26 27 27 28
38 37 37 37 36 35 35 34 32 31 31 30 30 30 30 29 29 28 28 28 27 27 27 27 27 27 27 27 26 26 26 26 26 26 26 27 27 28 28 28 28 28 29
39 39 39 38 38 37 36 36 34 34 33 32 32 32 32 31 31 30 30 30 29 29 29 29 30 29 29 28 28 28 28 28 28 28 28 29 29 29 29 29 29 30 30
40 41 40 40 39 39 38 37 36 36 36 35 34 34 33 33 33 32 32 31 31 31 31 31 31 31 31 30 30 30 30 30 30 30 30 30 30 30 31 31 31 31 31
41 41 41 41 41 40 40 40 38 38 37 37 36 35 35 35 35 34 33 33 33 33 33 33 33 33 33 32 32 32 31 31 32 32 32 32 32 32 32 32 32 32 33
42 42 42 42 42 42 42 41 41 40 39 38 38 38 37 37 37 36 35 35 35 35 35 35 35 35 34 34 34 33 33 33 33 33 34 34 34 34 34 34 34 34 34
43 43 43 43 43 44 44 43 43 42 41 41 40 39 38 38 38 38 37 37 37 37 37 37 37 36 35 35 35 35 35 35 35 35 35 35 36 36 36 36 35 35 35
45 44 45 45 44 44 44 45 45 45 44 43 43 42 40 40 40 40 40 40 39 39 39 38 38 38 37 37 37 37 37 36 36 36 36 37 37 37 37 37 37 37 37
45 45 45 45 45 45 45 46 47 46 45 44 43 42 42 42 42 42 42 42 41 41 40 40 39 39 39 39 39 39 39 38 38 38 38 38 38 38 38 38 38 38 38
45 45 45 46 46 47 47 47 47 47 46 45 44 44 44 44 44 44 44 43 42 42 42 41 41 40 40 40 40 40 40 40 40 39 39 39 39 39 39 39 39 39 40
44 45 45 45 46 47 47 47 47 47 47 46 46 45 45 45 45 45 45 45 44 43 43 43 42 41 41 41 41 41 42 42 41 41 40 39 40 40 40 40 41 41 41
43 44 44 45 46 46 47 47 47 47 48 48 47 46 46 46 47 46 46 46 45 45 44 44 44 43 43 43 43 43 43 43 43 42 42 41 41 41 41 41 41 42 42